| time (UTC) | temp C | wind direction | speed KPH | gust KPH | rain 1hr cm | rain 24hr cm | rain mn cm | humidity % | barometer mb |
| 20260831231004 | 17 | 24 | 3.2 | 6.4 | 0.00 | 0.08 | 0.00 | 69 | 1022.5 |
| 20260831230504 | 17 | 20 | 3.2 | 6.4 | 0.00 | 0.08 | 0.00 | 69 | 1022.6 |
| 20260831230004 | 17 | 19 | 3.2 | 6.4 | 0.00 | 0.08 | 0.00 | 72 | 1022.5 |
| 20260831225505 | 17 | 21 | 3.2 | 6.4 | 0.00 | 0.08 | 0.00 | 72 | 1022.5 |
| 20260831225003 | 17 | 25 | 4.8 | 8.0 | 0.00 | 0.08 | 0.00 | 72 | 1022.6 |
| 20260831224504 | 17 | 30 | 3.2 | 8.0 | 0.00 | 0.08 | 0.00 | 72 | 1022.5 |
| 20260831224004 | 17 | 25 | 4.8 | 8.0 | 0.00 | 0.08 | 0.00 | 72 | 1022.6 |
| 20260831223504 | 16 | 33 | 4.8 | 9.7 | 0.00 | 0.08 | 0.00 | 73 | 1022.6 |
| 20260831222504 | 16 | 33 | 4.8 | 8.0 | 0.00 | 0.08 | 0.00 | 73 | 1022.8 |
| 20260831222005 | 16 | 29 | 4.8 | 8.0 | 0.00 | 0.08 | 0.00 | 73 | 1023.0 |
| 20260831221504 | 16 | 36 | 4.8 | 8.0 | 0.00 | 0.08 | 0.00 | 73 | 1022.8 |
| 20260831221004 | 16 | 49 | 4.8 | 8.0 | 0.00 | 0.18 | 0.00 | 73 | 1023.0 |
| 20260831220504 | 16 | 49 | 4.8 | 8.0 | 0.00 | 0.25 | 0.00 | 73 | 1022.9 |
| 20260831220004 | 16 | 53 | 4.8 | 8.0 | 0.00 | 0.38 | 0.00 | 73 | 1023.0 |
| 20260831215504 | 16 | 54 | 4.8 | 9.7 | 0.00 | 0.46 | 0.43 | 73 | 1023.0 |
| 20260831215005 | 16 | 59 | 4.8 | 9.7 | 0.00 | 0.46 | 0.43 | 73 | 1022.9 |
| 20260831214506 | 16 | 48 | 4.8 | 9.7 | 0.00 | 0.46 | 0.43 | 73 | 1023.0 |
| 20260831214004 | 16 | 43 | 4.8 | 8.0 | 0.00 | 0.46 | 0.43 | 73 | 1023.0 |
| 20260831213504 | 16 | 43 | 4.8 | 8.0 | 0.00 | 0.46 | 0.43 | 73 | 1023.1 |
| 20260831212504 | 17 | 37 | 4.8 | 8.0 | 0.00 | 0.46 | 0.43 | 73 | 1023.1 |
| 20260831212004 | 17 | 41 | 4.8 | 11.3 | 0.00 | 0.46 | 0.43 | 73 | 1023.1 |
| 20260831211004 | 17 | 41 | 4.8 | 11.3 | 0.00 | 0.46 | 0.43 | 73 | 1023.0 |
| 20260831210505 | 17 | 59 | 3.2 | 9.7 | 0.00 | 0.46 | 0.43 | 73 | 1022.8 |
| 20260831210004 | 17 | 71 | 3.2 | 8.0 | 0.00 | 0.46 | 0.43 | 70 | 1022.9 |
| 20260831205004 | 17 | 73 | 4.8 | 8.0 | 0.00 | 0.46 | 0.43 | 69 | 1022.6 |
| 20260831204504 | 17 | 81 | 6.4 | 11.3 | 0.00 | 0.46 | 0.43 | 69 | 1022.7 |
| 20260831204004 | 17 | 84 | 6.4 | 11.3 | 0.00 | 0.46 | 0.43 | 69 | 1022.8 |
| 20260831203504 | 17 | 72 | 4.8 | 11.3 | 0.00 | 0.46 | 0.43 | 69 | 1022.6 |
| 20260831203004 | 17 | 60 | 4.8 | 8.0 | 0.00 | 0.46 | 0.43 | 69 | 1022.7 |
| 20260831202503 | 17 | 69 | 4.8 | 8.0 | 0.00 | 0.46 | 0.43 | 68 | 1022.7 |
| 20260831201504 | 18 | 50 | 4.8 | 8.0 | 0.00 | 0.46 | 0.43 | 67 | 1022.5 |
| 20260831201005 | 18 | 43 | 3.2 | 6.4 | 0.00 | 0.46 | 0.43 | 67 | 1022.6 |
| 20260831200506 | 18 | 38 | 3.2 | 6.4 | 0.00 | 0.46 | 0.43 | 66 | 1022.4 |
| 20260831200004 | 18 | 48 | 4.8 | 8.0 | 0.00 | 0.46 | 0.43 | 66 | 1022.3 |
| 20260831195504 | 18 | 44 | 4.8 | 8.0 | 0.00 | 0.46 | 0.43 | 65 | 1022.3 |
| 20260831195004 | 18 | 40 | 3.2 | 6.4 | 0.00 | 0.46 | 0.43 | 65 | 1022.2 |
| 20260831194504 | 19 | 40 | 1.6 | 6.4 | 0.00 | 0.46 | 0.43 | 64 | 1022.1 |
| 20260831194003 | 19 | 20 | 1.6 | 3.2 | 0.00 | 0.46 | 0.43 | 63 | 1021.9 |
| 20260831193504 | 19 | 256 | 1.6 | 4.8 | 0.00 | 0.46 | 0.43 | 63 | 1021.9 |
| 20260831193003 | 20 | 258 | 1.6 | 4.8 | 0.00 | 0.46 | 0.43 | 63 | 1021.9 |
| 20260831192504 | 20 | 243 | 1.6 | 6.4 | 0.00 | 0.46 | 0.43 | 62 | 1021.9 |
| 20260831191005 | 21 | 237 | 4.8 | 12.9 | 0.00 | 0.46 | 0.43 | 57 | 1021.9 |
| 20260831190506 | 21 | 236 | 4.8 | 12.9 | 0.00 | 0.46 | 0.43 | 57 | 1021.9 |
| 20260831190004 | 21 | 227 | 6.4 | 14.5 | 0.00 | 0.46 | 0.43 | 57 | 1021.9 |
| 20260831185004 | 20 | 91 | 6.4 | 12.9 | 0.00 | 0.46 | 0.43 | 60 | 1021.8 |
| 20260831184504 | 20 | 75 | 1.6 | 9.7 | 0.00 | 0.46 | 0.43 | 63 | 1021.9 |
| 20260831184004 | 19 | 64 | 1.6 | 4.8 | 0.00 | 0.46 | 0.43 | 64 | 1021.5 |
| 20260831183004 | 19 | 47 | 4.8 | 8.0 | 0.00 | 0.46 | 0.43 | 63 | 1021.3 |
| 20260831182504 | 20 | 47 | 4.8 | 8.0 | 0.00 | 0.46 | 0.43 | 63 | 1021.3 |
| 20260831182004 | 20 | 46 | 4.8 | 8.0 | 0.00 | 0.46 | 0.43 | 63 | 1021.1 |
| 20260831181504 | 20 | 39 | 4.8 | 8.0 | 0.00 | 0.46 | 0.43 | 63 | 1021.2 |
| 20260831181004 | 20 | 28 | 3.2 | 8.0 | 0.00 | 0.46 | 0.43 | 61 | 1021.0 |
| 20260831180506 | 20 | 326 | 3.2 | 6.4 | 0.00 | 0.46 | 0.43 | 59 | 1020.9 |
| 20260831175506 | 21 | 229 | 0.0 | 3.2 | 0.00 | 0.46 | 0.43 | 57 | 1020.9 |
| 20260831175005 | 21 | 234 | 1.6 | 9.7 | 0.00 | 0.46 | 0.43 | 57 | 1020.8 |
| 20260831174506 | 21 | 228 | 4.8 | 9.7 | 0.00 | 0.46 | 0.43 | 55 | 1020.7 |
| 20260831174005 | 22 | 229 | 6.4 | 12.9 | 0.00 | 0.46 | 0.43 | 50 | 1020.6 |
| 20260831173505 | 22 | 229 | 6.4 | 14.5 | 0.00 | 0.46 | 0.43 | 50 | 1020.8 |
| 20260831172505 | 22 | 233 | 8.0 | 16.1 | 0.00 | 0.46 | 0.43 | 49 | 1020.7 |
| 20260831172005 | 22 | 231 | 8.0 | 16.1 | 0.00 | 0.46 | 0.43 | 49 | 1020.6 |
| 20260831171505 | 23 | 240 | 6.4 | 16.1 | 0.00 | 0.46 | 0.43 | 49 | 1020.7 |
| 20260831171006 | 23 | 240 | 8.0 | 16.1 | 0.00 | 0.46 | 0.43 | 48 | 1020.6 |
| 20260831170505 | 23 | 250 | 6.4 | 16.1 | 0.00 | 0.46 | 0.43 | 48 | 1020.8 |
| 20260831165505 | 23 | 246 | 8.0 | 16.1 | 0.00 | 0.46 | 0.43 | 48 | 1020.9 |
| 20260831163006 | 24 | 238 | 9.7 | 16.1 | 0.00 | 0.46 | 0.43 | 46 | 1021.0 |
| 20260831162006 | 24 | 241 | 12.9 | 27.4 | 0.00 | 0.46 | 0.43 | 45 | 1021.0 |
| 20260831161005 | 24 | 248 | 9.7 | 27.4 | 0.00 | 0.46 | 0.43 | 45 | 1020.9 |
| 20260831160507 | 24 | 224 | 9.7 | 27.4 | 0.00 | 0.46 | 0.43 | 45 | 1020.8 |
| 20260831160005 | 24 | 224 | 9.7 | 17.7 | 0.00 | 0.46 | 0.43 | 45 | 1020.7 |
| 20260831155005 | 24 | 220 | 14.5 | 33.8 | 0.00 | 0.46 | 0.43 | 45 | 1020.8 |
| 20260831154505 | 23 | 212 | 19.3 | 33.8 | 0.00 | 0.46 | 0.43 | 45 | 1020.7 |
| 20260831153506 | 24 | 232 | 16.1 | 33.8 | 0.00 | 0.46 | 0.43 | 49 | 1020.6 |
| 20260831153006 | 24 | 235 | 16.1 | 27.4 | 0.00 | 0.46 | 0.43 | 49 | 1020.4 |
| 20260831152506 | 24 | 239 | 16.1 | 27.4 | 0.00 | 0.46 | 0.43 | 49 | 1020.5 |
| 20260831152006 | 24 | 242 | 16.1 | 27.4 | 0.00 | 0.46 | 0.43 | 49 | 1020.4 |
| 20260831151506 | 24 | 250 | 16.1 | 29.0 | 0.00 | 0.46 | 0.43 | 49 | 1020.4 |
| 20260831151006 | 24 | 243 | 14.5 | 29.0 | 0.00 | 0.46 | 0.43 | 50 | 1020.5 |
| 20260831145506 | 24 | 246 | 16.1 | 32.2 | 0.00 | 0.46 | 0.43 | 50 | 1020.5 |
| 20260831145006 | 24 | 248 | 12.9 | 20.9 | 0.00 | 0.46 | 0.43 | 51 | 1020.5 |
| 20260831144505 | 24 | 227 | 14.5 | 30.6 | 0.00 | 0.46 | 0.43 | 50 | 1020.4 |
| 20260831143505 | 24 | 256 | 12.9 | 27.4 | 0.00 | 0.46 | 0.43 | 51 | 1020.1 |
| 20260831141505 | 24 | 267 | 16.1 | 37.0 | 0.00 | 0.43 | 0.43 | 51 | 1020.1 |
| 20260831141005 | 23 | 274 | 14.5 | 25.7 | 0.00 | 0.43 | 0.43 | 51 | 1020.1 |
| 20260831140505 | 23 | 277 | 14.5 | 27.4 | 0.00 | 0.43 | 0.43 | 51 | 1019.9 |
| 20260831140005 | 23 | 281 | 16.1 | 27.4 | 0.00 | 0.43 | 0.43 | 51 | 1020.0 |
| 20260831135505 | 23 | 276 | 16.1 | 27.4 | 0.00 | 0.43 | 0.43 | 52 | 1020.0 |
| 20260831135006 | 23 | 277 | 16.1 | 29.0 | 0.00 | 0.43 | 0.43 | 50 | 1020.0 |
| 20260831134005 | 24 | 260 | 12.9 | 27.4 | 0.00 | 0.43 | 0.43 | 50 | 1020.1 |
| 20260831133506 | 24 | 250 | 14.5 | 27.4 | 0.00 | 0.43 | 0.43 | 50 | 1020.1 |
| 20260831132505 | 24 | 250 | 12.9 | 29.0 | 0.00 | 0.43 | 0.43 | 49 | 1019.8 |
| 20260831132005 | 23 | 251 | 14.5 | 29.0 | 0.00 | 0.43 | 0.43 | 50 | 1020.1 |
| 20260831131005 | 24 | 256 | 14.5 | 27.4 | 0.00 | 0.43 | 0.43 | 48 | 1020.0 |
| 20260831130505 | 24 | 257 | 14.5 | 25.7 | 0.00 | 0.43 | 0.43 | 48 | 1020.1 |
| 20260831130005 | 24 | 248 | 16.1 | 27.4 | 0.00 | 0.43 | 0.43 | 49 | 1020.2 |
| 20260831125505 | 23 | 247 | 14.5 | 27.4 | 0.00 | 0.43 | 0.43 | 47 | 1020.1 |
| 20260831124505 | 23 | 237 | 8.0 | 19.3 | 0.00 | 0.43 | 0.43 | 48 | 1020.1 |
| 20260831124005 | 23 | 243 | 8.0 | 20.9 | 0.00 | 0.43 | 0.43 | 48 | 1020.1 |
| 20260831123506 | 23 | 240 | 14.5 | 37.0 | 0.00 | 0.43 | 0.43 | 48 | 1020.0 |
| 20260831123006 | 23 | 251 | 17.7 | 37.0 | 0.00 | 0.43 | 0.43 | 48 | 1020.0 |
| 20260831122505 | 23 | 253 | 14.5 | 32.2 | 0.00 | 0.43 | 0.43 | 48 | 1020.0 |
| 20260831121005 | 22 | 250 | 8.0 | 17.7 | 0.00 | 0.43 | 0.43 | 54 | 1019.9 |
| 20260831120005 | 22 | 262 | 9.7 | 24.1 | 0.00 | 0.43 | 0.43 | 54 | 1020.1 |
| 20260831114505 | 22 | 275 | 12.9 | 24.1 | 0.00 | 0.43 | 0.43 | 51 | 1020.2 |
| 20260831114005 | 22 | 276 | 12.9 | 20.9 | 0.00 | 0.43 | 0.43 | 56 | 1020.2 |
| 20260831113505 | 22 | 270 | 11.3 | 20.9 | 0.00 | 0.43 | 0.43 | 56 | 1020.0 |
| 20260831112506 | 21 | 263 | 11.3 | 20.9 | 0.00 | 0.43 | 0.43 | 58 | 1020.2 |
| 20260831112005 | 21 | 256 | 11.3 | 22.5 | 0.00 | 0.43 | 0.43 | 58 | 1020.2 |
| 20260831111505 | 21 | 253 | 14.5 | 25.7 | 0.00 | 0.43 | 0.43 | 57 | 1020.4 |
| 20260831111005 | 22 | 243 | 11.3 | 25.7 | 0.00 | 0.43 | 0.43 | 58 | 1020.2 |
| 20260831110505 | 21 | 227 | 11.3 | 20.9 | 0.00 | 0.43 | 0.43 | 60 | 1020.5 |
| 20260831110005 | 21 | 225 | 14.5 | 29.0 | 0.00 | 0.43 | 0.43 | 60 | 1020.4 |
| 20260831105505 | 21 | 226 | 14.5 | 29.0 | 0.00 | 0.43 | 0.43 | 60 | 1020.2 |
| 20260831105006 | 21 | 228 | 12.9 | 24.1 | 0.00 | 0.43 | 0.43 | 61 | 1020.4 |
| 20260831104505 | 21 | 226 | 9.7 | 20.9 | 0.00 | 0.43 | 0.43 | 62 | 1020.4 |
| 20260831104005 | 21 | 235 | 9.7 | 16.1 | 0.00 | 0.43 | 0.43 | 63 | 1020.3 |
| 20260831103505 | 21 | 247 | 9.7 | 19.3 | 0.00 | 0.43 | 0.43 | 63 | 1020.2 |
| 20260831103005 | 21 | 246 | 8.0 | 19.3 | 0.00 | 0.43 | 0.43 | 63 | 1020.2 |
| 20260831102506 | 20 | 245 | 8.0 | 20.9 | 0.00 | 0.43 | 0.43 | 63 | 1020.3 |
| 20260831101005 | 20 | 239 | 12.9 | 24.1 | 0.00 | 0.43 | 0.43 | 63 | 1020.5 |
| 20260831100505 | 20 | 230 | 11.3 | 20.9 | 0.00 | 0.43 | 0.43 | 63 | 1020.5 |
| 20260831100005 | 20 | 228 | 11.3 | 20.9 | 0.00 | 0.43 | 0.43 | 63 | 1020.3 |
| 20260831095504 | 20 | 232 | 11.3 | 17.7 | 0.00 | 0.43 | 0.43 | 63 | 1020.4 |
| 20260831095005 | 20 | 234 | 11.3 | 20.9 | 0.00 | 0.43 | 0.43 | 63 | 1020.5 |
| 20260831094505 | 20 | 236 | 11.3 | 20.9 | 0.00 | 0.43 | 0.43 | 63 | 1020.6 |
| 20260831094005 | 20 | 235 | 11.3 | 20.9 | 0.00 | 0.43 | 0.43 | 63 | 1020.6 |
| 20260831093505 | 20 | 243 | 11.3 | 20.9 | 0.00 | 0.43 | 0.43 | 63 | 1020.5 |
| 20260831093005 | 20 | 250 | 8.0 | 16.1 | 0.00 | 0.43 | 0.43 | 64 | 1020.5 |
| 20260831092505 | 20 | 249 | 9.7 | 17.7 | 0.00 | 0.43 | 0.43 | 64 | 1020.8 |
| 20260831092006 | 20 | 256 | 11.3 | 20.9 | 0.00 | 0.43 | 0.43 | 64 | 1020.6 |
| 20260831091505 | 20 | 257 | 9.7 | 20.9 | 0.00 | 0.43 | 0.43 | 65 | 1020.6 |
| 20260831091005 | 20 | 256 | 6.4 | 14.5 | 0.00 | 0.43 | 0.43 | 65 | 1020.5 |
| 20260831090006 | 19 | 250 | 11.3 | 22.5 | 0.00 | 0.43 | 0.43 | 67 | 1020.5 |
| 20260831085004 | 18 | 250 | 8.0 | 19.3 | 0.00 | 0.43 | 0.43 | 70 | 1020.4 |
| 20260831084505 | 18 | 239 | 9.7 | 19.3 | 0.00 | 0.43 | 0.43 | 70 | 1020.3 |
| 20260831083507 | 18 | 243 | 11.3 | 19.3 | 0.00 | 0.43 | 0.43 | 72 | 1020.3 |
| 20260831083005 | 18 | 242 | 11.3 | 22.5 | 0.00 | 0.43 | 0.43 | 72 | 1020.2 |
| 20260831082505 | 18 | 244 | 11.3 | 22.5 | 0.00 | 0.43 | 0.43 | 72 | 1020.3 |
| 20260831082005 | 18 | 237 | 9.7 | 20.9 | 0.00 | 0.43 | 0.43 | 72 | 1020.2 |
| 20260831081005 | 18 | 240 | 9.7 | 17.7 | 0.00 | 0.43 | 0.43 | 73 | 1020.0 |
| 20260831080505 | 18 | 230 | 9.7 | 20.9 | 0.00 | 0.43 | 0.43 | 73 | 1020.1 |
| 20260831080005 | 18 | 230 | 9.7 | 20.9 | 0.00 | 0.43 | 0.43 | 73 | 1020.1 |
| 20260831075506 | 18 | 229 | 9.7 | 20.9 | 0.00 | 0.43 | 0.43 | 73 | 1020.0 |
| 20260831075005 | 18 | 233 | 12.9 | 22.5 | 0.00 | 0.43 | 0.43 | 73 | 1020.0 |
| 20260831074506 | 18 | 240 | 11.3 | 22.5 | 0.00 | 0.43 | 0.43 | 73 | 1020.0 |
| 20260831074005 | 18 | 237 | 8.0 | 12.9 | 0.00 | 0.43 | 0.43 | 73 | 1019.8 |
| 20260831073005 | 18 | 253 | 11.3 | 24.1 | 0.00 | 0.43 | 0.43 | 73 | 1019.6 |
| 20260831072005 | 18 | 247 | 9.7 | 19.3 | 0.00 | 0.43 | 0.43 | 73 | 1019.7 |
| 20260831071505 | 18 | 247 | 8.0 | 19.3 | 0.00 | 0.43 | 0.43 | 74 | 1019.7 |
| 20260831071005 | 18 | 250 | 8.0 | 16.1 | 0.00 | 0.43 | 0.43 | 74 | 1019.5 |
| 20260831070505 | 18 | 240 | 8.0 | 16.1 | 0.00 | 0.43 | 0.43 | 74 | 1019.6 |
| 20260831070005 | 18 | 239 | 9.7 | 19.3 | 0.00 | 0.43 | 0.43 | 74 | 1019.8 |
| 20260831065505 | 18 | 240 | 8.0 | 19.3 | 0.00 | 0.43 | 0.43 | 75 | 1019.8 |
| 20260831064505 | 17 | 240 | 8.0 | 16.1 | 0.00 | 0.43 | 0.43 | 76 | 1019.5 |
| 20260831064005 | 17 | 243 | 6.4 | 12.9 | 0.00 | 0.43 | 0.43 | 76 | 1019.8 |
| 20260831063004 | 17 | 238 | 8.0 | 16.1 | 0.00 | 0.43 | 0.43 | 77 | 1019.5 |
| 20260831062005 | 17 | 232 | 6.4 | 12.9 | 0.00 | 0.43 | 0.43 | 78 | 1019.3 |
| 20260831061505 | 17 | 226 | 4.8 | 9.7 | 0.00 | 0.43 | 0.43 | 81 | 1019.2 |
| 20260831061005 | 17 | 219 | 4.8 | 12.9 | 0.00 | 0.43 | 0.43 | 81 | 1019.3 |
| 20260831060505 | 17 | 227 | 4.8 | 12.9 | 0.00 | 0.43 | 0.43 | 81 | 1019.4 |
| 20260831060005 | 17 | 244 | 4.8 | 12.9 | 0.00 | 0.43 | 0.43 | 81 | 1019.3 |
| 20260831055505 | 17 | 237 | 4.8 | 11.3 | 0.00 | 0.43 | 0.43 | 81 | 1019.3 |
| 20260831055005 | 17 | 248 | 4.8 | 11.3 | 0.00 | 0.43 | 0.43 | 81 | 1019.0 |
| 20260831054505 | 17 | 252 | 6.4 | 11.3 | 0.00 | 0.43 | 0.43 | 82 | 1019.2 |
| 20260831054005 | 17 | 256 | 6.4 | 9.7 | 0.00 | 0.43 | 0.43 | 82 | 1019.1 |
| 20260831053506 | 17 | 249 | 4.8 | 11.3 | 0.00 | 0.43 | 0.43 | 82 | 1019.2 |
| 20260831053005 | 17 | 247 | 6.4 | 14.5 | 0.00 | 0.43 | 0.43 | 80 | 1019.1 |
| 20260831052505 | 17 | 256 | 9.7 | 20.9 | 0.00 | 0.43 | 0.43 | 82 | 1019.1 |
| 20260831052005 | 17 | 254 | 9.7 | 20.9 | 0.00 | 0.43 | 0.43 | 81 | 1019.0 |
| 20260831051505 | 17 | 247 | 9.7 | 17.7 | 0.00 | 0.43 | 0.43 | 81 | 1019.0 |
| 20260831051005 | 17 | 238 | 8.0 | 20.9 | 0.00 | 0.43 | 0.43 | 81 | 1019.1 |
| 20260831050504 | 17 | 247 | 9.7 | 20.9 | 0.00 | 0.43 | 0.43 | 81 | 1018.9 |
| 20260831045504 | 17 | 237 | 11.3 | 22.5 | 0.00 | 0.43 | 0.43 | 82 | 1018.8 |
| 20260831045005 | 17 | 236 | 11.3 | 22.5 | 0.00 | 0.43 | 0.43 | 83 | 1018.9 |
| 20260831042505 | 17 | 237 | 9.7 | 17.7 | 0.00 | 0.43 | 0.43 | 84 | 1018.6 |
| 20260831042005 | 17 | 232 | 9.7 | 17.7 | 0.00 | 0.43 | 0.43 | 84 | 1018.7 |
| 20260831041505 | 17 | 229 | 8.0 | 17.7 | 0.00 | 0.43 | 0.43 | 84 | 1018.5 |
| 20260831040504 | 17 | 227 | 11.3 | 20.9 | 0.00 | 0.43 | 0.43 | 84 | 1018.5 |
| 20260831040006 | 17 | 225 | 9.7 | 17.7 | 0.00 | 0.43 | 0.43 | 84 | 1018.6 |
| 20260831035505 | 17 | 223 | 9.7 | 17.7 | 0.00 | 0.43 | 0.43 | 83 | 1018.5 |
| 20260831035004 | 17 | 224 | 8.0 | 16.1 | 0.00 | 0.43 | 0.43 | 83 | 1018.3 |
| 20260831034505 | 18 | 225 | 9.7 | 16.1 | 0.00 | 0.43 | 0.43 | 83 | 1018.4 |
| 20260831034005 | 18 | 226 | 8.0 | 12.9 | 0.00 | 0.43 | 0.43 | 83 | 1018.4 |
| 20260831033505 | 18 | 228 | 8.0 | 19.3 | 0.00 | 0.43 | 0.43 | 83 | 1018.5 |
| 20260831033005 | 18 | 229 | 8.0 | 19.3 | 0.00 | 0.43 | 0.43 | 83 | 1018.5 |
| 20260831032005 | 18 | 235 | 8.0 | 16.1 | 0.00 | 0.43 | 0.43 | 83 | 1018.3 |
| 20260831031506 | 18 | 235 | 9.7 | 17.7 | 0.00 | 0.43 | 0.43 | 83 | 1018.6 |
| 20260831030505 | 18 | 231 | 6.4 | 16.1 | 0.00 | 0.43 | 0.43 | 82 | 1018.3 |
| 20260831030005 | 18 | 230 | 6.4 | 12.9 | 0.00 | 0.43 | 0.43 | 82 | 1018.3 |
| 20260831025505 | 18 | 228 | 6.4 | 12.9 | 0.00 | 0.43 | 0.43 | 83 | 1018.5 |
| 20260831025005 | 18 | 236 | 6.4 | 11.3 | 0.00 | 0.43 | 0.43 | 83 | 1018.4 |
| 20260831024505 | 18 | 248 | 4.8 | 9.7 | 0.00 | 0.43 | 0.43 | 83 | 1018.3 |
| 20260831024007 | 18 | 249 | 4.8 | 14.5 | 0.00 | 0.43 | 0.43 | 83 | 1018.2 |
| 20260831023505 | 18 | 246 | 6.4 | 14.5 | 0.00 | 0.43 | 0.43 | 82 | 1018.3 |
| 20260831023005 | 18 | 247 | 8.0 | 14.5 | 0.00 | 0.43 | 0.43 | 82 | 1018.4 |
| 20260831022505 | 18 | 250 | 8.0 | 14.5 | 0.00 | 0.43 | 0.43 | 82 | 1018.4 |
| 20260831022004 | 18 | 249 | 8.0 | 14.5 | 0.00 | 0.43 | 0.43 | 82 | 1018.2 |
| 20260831021506 | 18 | 235 | 6.4 | 14.5 | 0.00 | 0.43 | 0.43 | 82 | 1018.1 |
| 20260831021005 | 18 | 233 | 6.4 | 12.9 | 0.00 | 0.43 | 0.43 | 82 | 1018.0 |
| 20260831020505 | 18 | 245 | 8.0 | 12.9 | 0.00 | 0.43 | 0.43 | 82 | 1017.9 |
| 20260831020005 | 18 | 250 | 6.4 | 12.9 | 0.00 | 0.43 | 0.43 | 82 | 1018.0 |
| 20260831015504 | 18 | 244 | 6.4 | 12.9 | 0.00 | 0.43 | 0.43 | 82 | 1017.8 |
| 20260831015005 | 18 | 238 | 8.0 | 14.5 | 0.00 | 0.43 | 0.43 | 82 | 1017.8 |
| 20260831014505 | 18 | 243 | 6.4 | 14.5 | 0.00 | 0.43 | 0.43 | 82 | 1017.6 |
| 20260831013505 | 18 | 242 | 8.0 | 17.7 | 0.00 | 0.43 | 0.43 | 82 | 1017.8 |
| 20260831013006 | 18 | 238 | 6.4 | 14.5 | 0.00 | 0.43 | 0.43 | 82 | 1017.9 |
| 20260831012504 | 18 | 243 | 6.4 | 14.5 | 0.00 | 0.43 | 0.43 | 82 | 1017.8 |
| 20260831012005 | 18 | 245 | 6.4 | 14.5 | 0.00 | 0.43 | 0.43 | 82 | 1017.7 |
| 20260831011505 | 18 | 240 | 8.0 | 16.1 | 0.00 | 0.43 | 0.43 | 82 | 1017.8 |
| 20260831011005 | 18 | 234 | 8.0 | 16.1 | 0.00 | 0.43 | 0.43 | 81 | 1018.0 |
| 20260831010005 | 18 | 230 | 8.0 | 14.5 | 0.00 | 0.43 | 0.43 | 81 | 1017.7 |
| 20260831005505 | 18 | 238 | 8.0 | 14.5 | 0.00 | 0.43 | 0.43 | 81 | 1018.0 |
| 20260831005005 | 18 | 239 | 8.0 | 17.7 | 0.00 | 0.43 | 0.43 | 81 | 1018.0 |
| 20260831004505 | 18 | 248 | 9.7 | 17.7 | 0.00 | 0.43 | 0.43 | 81 | 1017.9 |
| 20260831004005 | 18 | 248 | 9.7 | 17.7 | 0.00 | 0.43 | 0.43 | 81 | 1017.8 |
| 20260831003505 | 18 | 249 | 8.0 | 16.1 | 0.00 | 0.43 | 0.43 | 81 | 1017.7 |
| 20260831003005 | 17 | 251 | 6.4 | 16.1 | 0.03 | 0.43 | 0.43 | 81 | 1017.6 |
| 20260831002505 | 17 | 238 | 6.4 | 16.1 | 0.05 | 0.43 | 0.43 | 82 | 1018.0 |
| 20260831002005 | 17 | 220 | 4.8 | 16.1 | 0.05 | 0.43 | 0.43 | 83 | 1017.8 |
| 20260831001005 | 17 | 235 | 1.6 | 4.8 | 0.08 | 0.43 | 0.43 | 82 | 1017.9 |
| 20260831000505 | 17 | 231 | 1.6 | 4.8 | 0.08 | 0.43 | 0.43 | 82 | 1017.6 |
| 20260831000005 | 18 | 212 | 1.6 | 4.8 | 0.08 | 0.43 | 0.43 | 82 | 1017.8 |
| 20260830235005 | 18 | 208 | 3.2 | 11.3 | 0.08 | 0.43 | 0.43 | 82 | 1017.8 |
| 20260830234506 | 18 | 201 | 3.2 | 4.8 | 0.08 | 0.43 | 0.43 | 83 | 1018.0 |
| 20260830234005 | 18 | 211 | 4.8 | 9.7 | 0.08 | 0.43 | 0.43 | 84 | 1017.8 |
| 20260830233504 | 18 | 222 | 6.4 | 16.1 | 0.08 | 0.43 | 0.43 | 84 | 1017.9 |
| 20260830233005 | 18 | 227 | 8.0 | 20.9 | 0.08 | 0.43 | 0.43 | 85 | 1018.0 |
| 20260830232005 | 18 | 237 | 9.7 | 19.3 | 0.05 | 0.41 | 0.38 | 87 | 1018.4 |